Morris, IL

10:22 PM CST on January 23, 2018 (GMT -0600)
Morris

Weather History for KC09 - February, 2012

Change the Weather History Date:

Monday, February 27, 2012

  Actual Average (KARR) Record (KARR)
Temperature  
Mean Temperature 32 °F -  
Max Temperature 35 °F 36 °F 56 °F (2016)
Min Temperature 28 °F 21 °F -16 °F (2015)
Degree Days  
Heating Degree Days 34    
Moisture  
Dew Point 23 °F    
Average Humidity 71    
Maximum Humidity 79    
Minimum Humidity 64    
Precipitation  
Precipitation 0.00 in - - ()
Sea Level Pressure  
Sea Level Pressure 30.29 in    
Wind  
Wind Speed 12 mph (West)    
Max Wind Speed 28 mph    
Max Gust Speed 33 mph    
Visibility 10 miles    
Events      
Averages and records for this station are not official NWS values.
T = Trace of Precipitation, MM = Missing Value Source: NWS Daily Summary

Daily Weather History Graph

Daily Weather History Graph

Search for Another Location

Airport or City:

Trip Planner

Search our weather history database for the weather conditions in past years. The results will help you decide how hot, cold, wet, or windy it might be!

Date:

Astronomy

Feb. 27, 2012 Rise Set
Actual Time 6:32 AM CST 5:41 PM CST
Civil Twilight 6:04 AM CST 6:09 PM CST
Nautical Twilight 5:32 AM CST 6:41 PM CST
Astronomical Twilight 5:00 AM CST 7:13 PM CST
Moon 8:56 AM CST (2/27) 11:40 PM CST (2/27)
Length of Visible Light 12h 05m
Length of Day
11h 09m
Waxing Crescent, 29% of the Moon is Illuminated
Feb 27
Waxing Crescent
Feb 29
First Quarter
Mar 8
Full
Mar 14
Last Quarter
Mar 22
New

Hourly Weather History & Observations

Time (CST) Temp. Windchill Dew Point Humidity Pressure Visibility Wind Dir Wind Speed Gust Speed Precip Events Conditions
12:15 AM 33.1 °F 30.0 °F 25.7 °F 74% 30.11 in 10.0 mi West 3.5 mph - N/A   Clear
12:35 AM 32.0 °F 27.5 °F 24.8 °F 75% 30.11 in 10.0 mi West 4.6 mph - N/A   Clear
12:55 AM 33.1 °F 26.9 °F 26.2 °F 76% 30.12 in 10.0 mi West 6.9 mph - N/A   Clear
1:15 AM 33.1 °F 26.9 °F 25.7 °F 74% 30.12 in 10.0 mi West 6.9 mph - N/A   Clear
1:35 AM 32.0 °F 26.4 °F 25.7 °F 78% 30.13 in 10.0 mi WSW 5.8 mph - N/A   Clear
1:55 AM 31.5 °F 24.9 °F 25.2 °F 78% 30.14 in 10.0 mi WSW 6.9 mph - N/A   Clear
2:15 AM 32.5 °F 24.2 °F 25.0 °F 74% 30.14 in 10.0 mi West 10.4 mph - N/A   Clear
2:35 AM 32.9 °F 24.7 °F 24.8 °F 72% 30.14 in 10.0 mi West 10.4 mph - N/A   Clear
2:55 AM 31.8 °F 21.8 °F 25.3 °F 77% 30.14 in 10.0 mi West 13.8 mph - N/A   Clear
3:15 AM 32.2 °F 22.3 °F 23.9 °F 72% 30.15 in 10.0 mi West 13.8 mph - N/A   Clear
3:35 AM 32.7 °F 23.4 °F 23.0 °F 67% 30.15 in 10.0 mi West 12.7 mph - N/A   Mostly Cloudy
3:55 AM 32.0 °F 24.2 °F 23.0 °F 69% 30.16 in 10.0 mi West 9.2 mph - N/A   Scattered Clouds
4:15 AM 31.3 °F 22.7 °F 23.9 °F 74% 30.17 in 10.0 mi WSW 10.4 mph - N/A   Clear
4:35 AM 30.2 °F 20.8 °F 23.0 °F 75% 30.18 in 10.0 mi West 11.5 mph - N/A   Clear
4:55 AM 30.0 °F 22.4 °F 21.9 °F 72% 30.19 in 10.0 mi West 8.1 mph - N/A   Clear
5:15 AM 29.8 °F 20.3 °F 22.1 °F 73% 30.20 in 10.0 mi West 11.5 mph - N/A   Clear
5:35 AM 29.3 °F 19.6 °F 22.8 °F 77% 30.21 in 10.0 mi West 11.5 mph - N/A   Clear
5:55 AM 29.3 °F 20.2 °F 23.0 °F 77% 30.21 in 10.0 mi West 10.4 mph - N/A   Clear
6:15 AM 29.7 °F 17.8 °F 22.3 °F 74% 30.22 in 10.0 mi West 17.3 mph 21.9 mph N/A   Clear
6:35 AM 28.6 °F 18.7 °F 22.6 °F 78% 30.23 in 10.0 mi West 11.5 mph - N/A   Clear
6:55 AM 28.6 °F 16.4 °F 22.1 °F 77% 30.24 in 10.0 mi West 17.3 mph - N/A   Clear
7:15 AM 28.8 °F 17.0 °F 21.7 °F 75% 30.25 in 10.0 mi West 16.1 mph - N/A   Clear
7:35 AM 29.3 °F 17.0 °F 21.9 °F 74% 30.26 in 10.0 mi West 18.4 mph 24.2 mph N/A   Clear
7:55 AM 29.3 °F 16.6 °F 21.9 °F 74% 30.28 in 10.0 mi West 19.6 mph 26.5 mph N/A   Clear
8:15 AM 30.0 °F 16.3 °F 22.3 °F 73% 30.29 in 10.0 mi West 24.2 mph 29.9 mph N/A   Clear
8:35 AM 30.2 °F 15.7 °F 22.1 °F 72% 30.30 in 10.0 mi WNW 27.6 mph 33.4 mph N/A   Clear
8:55 AM 30.0 °F 16.6 °F 22.3 °F 73% 30.31 in 10.0 mi WNW 23.0 mph 32.2 mph N/A   Scattered Clouds
9:15 AM 29.8 °F 16.0 °F 21.0 °F 70% 30.32 in 10.0 mi WNW 24.2 mph 32.2 mph N/A   Scattered Clouds
9:35 AM 29.7 °F 17.1 °F 21.4 °F 71% 30.34 in 10.0 mi WNW 19.6 mph 27.6 mph N/A   Scattered Clouds
9:55 AM 31.1 °F 17.7 °F 21.6 °F 68% 30.34 in 10.0 mi WNW 24.2 mph 29.9 mph N/A   Mostly Cloudy
10:15 AM 31.5 °F 18.2 °F 21.6 °F 67% 30.35 in 10.0 mi WNW 24.2 mph 28.8 mph N/A   Mostly Cloudy
10:35 AM 31.8 °F 19.9 °F 21.7 °F 66% 30.36 in 10.0 mi WNW 19.6 mph 25.3 mph N/A   Scattered Clouds
10:55 AM 32.0 °F 19.2 °F 22.1 °F 67% 30.36 in 10.0 mi WNW 23.0 mph 27.6 mph N/A   Scattered Clouds
11:15 AM 32.2 °F 19.7 °F 22.3 °F 67% 30.37 in 10.0 mi WNW 21.9 mph 26.5 mph N/A   Scattered Clouds
11:35 AM 33.8 °F 23.5 °F 23.0 °F 65% 30.37 in 10.0 mi WNW 16.1 mph 25.3 mph N/A   Scattered Clouds
11:55 AM 33.1 °F 22.2 °F 23.2 °F 67% 30.38 in 10.0 mi West 17.3 mph - N/A   Scattered Clouds
12:15 PM 33.6 °F 23.7 °F 23.9 °F 68% 30.38 in 10.0 mi WNW 15.0 mph 24.2 mph N/A   Scattered Clouds
12:35 PM 34.2 °F 24.4 °F 23.2 °F 64% 30.37 in 10.0 mi WNW 15.0 mph 21.9 mph N/A   Scattered Clouds
12:55 PM 34.9 °F 24.2 °F 23.9 °F 64% 30.37 in 10.0 mi West 18.4 mph 23.0 mph N/A   Scattered Clouds
1:15 PM 34.5 °F 24.5 °F 23.7 °F 65% 30.37 in 10.0 mi West 16.1 mph - N/A   Mostly Cloudy
1:35 PM 34.9 °F 24.9 °F 24.1 °F 65% 30.38 in 10.0 mi West 16.1 mph 24.2 mph N/A   Scattered Clouds
1:55 PM 34.3 °F 23.2 °F 23.9 °F 66% 30.39 in 10.0 mi West 19.6 mph 24.2 mph N/A   Mostly Cloudy
2:15 PM 34.0 °F 23.4 °F 23.7 °F 66% 30.40 in 10.0 mi WNW 17.3 mph 25.3 mph N/A   Mostly Cloudy
2:35 PM 34.3 °F 23.5 °F 23.9 °F 66% 30.40 in 10.0 mi WNW 18.4 mph 26.5 mph N/A   Mostly Cloudy
2:55 PM 34.7 °F 24.3 °F 23.9 °F 65% 30.40 in 10.0 mi WNW 17.3 mph - N/A   Scattered Clouds
3:15 PM 34.2 °F 24.8 °F 23.4 °F 65% 30.41 in 10.0 mi WNW 13.8 mph 21.9 mph N/A   Scattered Clouds
3:35 PM 34.9 °F 25.7 °F 23.9 °F 64% 30.41 in 10.0 mi WNW 13.8 mph - N/A   Scattered Clouds
3:55 PM 35.1 °F 26.4 °F 23.9 °F 64% 30.42 in 10.0 mi WNW 12.7 mph - N/A   Scattered Clouds
4:15 PM 34.3 °F 25.9 °F 23.9 °F 66% 30.43 in 10.0 mi WNW 11.5 mph - N/A   Scattered Clouds
4:35 PM 34.3 °F 26.5 °F 24.1 °F 66% 30.44 in 10.0 mi West 10.4 mph - N/A   Scattered Clouds
4:55 PM 33.8 °F 24.8 °F 24.4 °F 69% 30.44 in 10.0 mi WNW 12.7 mph - N/A   Scattered Clouds
5:15 PM 32.9 °F 27.5 °F 24.4 °F 71% 30.45 in 10.0 mi WNW 5.8 mph - N/A   Scattered Clouds
5:35 PM 31.3 °F 24.7 °F 24.3 °F 75% 30.45 in 10.0 mi WNW 6.9 mph - N/A   Scattered Clouds
5:55 PM 30.6 °F 25.8 °F 24.1 °F 77% 30.45 in 10.0 mi NW 4.6 mph - N/A   Clear
6:15 PM 30.2 °F 26.7 °F 24.4 °F 79% 30.46 in 10.0 mi NW 3.5 mph - N/A   Clear
6:35 PM 30.2 °F 26.7 °F 24.8 °F 80% 30.46 in 10.0 mi WNW 3.5 mph - N/A   Clear
6:55 PM 29.3 °F - 24.6 °F 83% 30.46 in 10.0 mi Calm Calm - N/A   Clear
7:15 PM 29.1 °F 25.4 °F 24.1 °F 81% 30.46 in 10.0 mi WNW 3.5 mph - N/A   Clear
7:35 PM 28.4 °F 24.6 °F 24.8 °F 86% 30.46 in 10.0 mi WNW 3.5 mph - N/A   Clear
7:55 PM 28.2 °F 24.4 °F 24.6 °F 86% 30.47 in 10.0 mi WNW 3.5 mph - N/A   Clear
8:15 PM 28.0 °F - 24.3 °F 86% 30.46 in 10.0 mi Calm Calm - N/A   Clear
8:35 PM 27.0 °F - 23.4 °F 86% 30.47 in 10.0 mi Calm Calm - N/A   Clear
8:55 PM 28.2 °F - 23.0 °F 81% 30.47 in 10.0 mi Calm Calm - N/A   Clear
9:15 PM 27.0 °F - 23.0 °F 85% 30.47 in 10.0 mi Calm Calm - N/A   Clear
9:35 PM 27.3 °F - 23.9 °F 87% 30.47 in 10.0 mi Calm Calm - N/A   Clear
9:55 PM 26.8 °F - 23.9 °F 89% 30.46 in 10.0 mi Calm Calm - N/A   Clear
10:15 PM 26.1 °F - 24.3 °F 93% 30.46 in 10.0 mi Calm Calm - N/A   Clear
10:35 PM 25.5 °F - 23.2 °F 91% 30.46 in 10.0 mi Calm Calm - N/A   Clear
10:55 PM 25.5 °F - 23.7 °F 93% 30.45 in 10.0 mi Calm Calm - N/A   Clear
11:15 PM 24.8 °F - 23.7 °F 96% 30.46 in 10.0 mi Calm Calm - N/A   Clear
11:35 PM 24.3 °F - 23.0 °F 95% 30.46 in 10.0 mi Calm Calm - N/A   Clear
11:55 PM 24.6 °F - 23.9 °F 97% 30.46 in 10.0 mi Calm Calm - N/A   Clear